Regional Weather Roundup
Issued by NWS

Home | Current Version | Previous Version | Text Only | Print | Product List | Glossary On
Versions: 1 2 3 4 5 6 7 8 9 10 11 12 13 14 15 16 17 18 19 20 21 22 23 24 25 26 27 28 29 30 31 32 33 34 35 36 37 38 39 40 41 42 43 44 45 46 47 48 49 50
000
ASUS43 KIND 061009
RWRIN

WEATHER ROUNDUP FOR INDIANA
NATIONAL WEATHER SERVICE INDIANAPOLIS IN
600 AM EDT FRI MAY 06 2016

NOTE: "FAIR" INDICATES FEW OR NO CLOUDS BELOW 12,000 FEET WITH NO
SIGNIFICANT WEATHER AND/OR OBSTRUCTIONS TO VISIBILITY.

* - STATION DOES NOT REPORT WEATHER SUCH AS PRECIPITATION OR FOG.

+ - STATION NOT QUALITY CONTROLLED BY THE NATIONAL WEATHER SERVICE.
    USE DATA WITH CAUTION...ESPECIALLY DEWPOINT AND RELATIVE
    HUMIDITY OBSERVATIONS.

INZ001>003-010>013-019-020-061100-
NORTHWEST INDIANA

CITY           SKY/WX    TMP DP  RH WIND       PRES   REMARKS
GARY /AIRPORT/ MOCLDY    41  41 100 CALM      29.99R
KNOX *+        CLEAR     36  36 100 CALM      29.97S
LA PORTE +     CLEAR    N/A N/A N/A CALM      29.98R
MICHIGAN CITY+ CLEAR     34  34 100 CALM      29.99R
MONTICELLO +   CLEAR     39  36  87 W3        29.97S
RENSSELAER +   CLEAR     41  41 100 CALM      29.98S
VALPARAISO     CLEAR     38  37  97 CALM      29.98S

$$

LMZ046-743>745-061100-
SOUTHERN LAKE MICHIGAN

STATION/POSITION TIME  TEMP    WIND        PRES    WAVE
                       AIR SEA DIR/SP/G            HT
                 (UTC) (F)     (DEG/KT/KT) (MB)    (FT)
BURNS HARBOR     0901   44     190/  4/  5 1015.2F
MICHIGAN CITY    0900   42     140/  4/  5   N/A

$$

INZ004-005-014>016-021>024-061100-
NORTH CENTRAL INDIANA

CITY           SKY/WX    TMP DP  RH WIND       PRES   REMARKS
GOSHEN         CLEAR     40  35  83 CALM      29.96R
LOGANSPORT +   CLEAR     39  37  93 CALM      29.98R
PERU/GRISSOM   CLEAR     42  40  94 W6        29.96R
ROCHESTER +    CLEAR     41  39  93 CALM      29.97S
SOUTH BEND     PTCLDY    36  34  92 CALM      29.97S
WARSAW +       CLEAR     41  36  81 CALM      29.96F

$$

INZ006>009-017-018-025>027-061100-
NORTHEAST INDIANA

CITY           SKY/WX    TMP DP  RH WIND       PRES   REMARKS
ANGOLA *+        N/A     41  37  87 CALM      29.94S
AUBURN +       CLEAR     43  36  75 NW3       29.95S
FORT WAYNE     PTCLDY    43  36  76 CALM      29.95R
HUNTINGTON +   CLEAR     42  37  84 NW5       29.95S

$$

INZ028-029-035-036-043>045-051>053-061100-
WEST CENTRAL INDIANA

CITY           SKY/WX    TMP DP  RH WIND       PRES   REMARKS
CRAWFORDSVL +  CLEAR     38  38 100 CALM      29.98R
GREENCASTLE +  CLEAR     43  43 100 CALM      29.98S
LAFAYETTE      CLEAR     38  37  97 CALM      29.98S FOG
TERRE HAUTE    CLEAR     43  41  93 CALM      29.99S

$$

INZ030>032-037>040-046>048-054>057-064-065-061100-
CENTRAL INDIANA

CITY           SKY/WX    TMP DP  RH WIND       PRES   REMARKS
CP ATTERBURY + CLEAR     43  41  93 CALM      29.97S
FISHERS *+     CLEAR     39  39 100 CALM      29.97S
FRANKFORT +      N/A     41  39  95 CALM      29.99S
GREENWOOD *+   CLEAR     41  39  93 CALM      29.97
INDIANAPOLIS   PTCLDY    45  38  76 NW5       29.96R
-EAGLE CREEK   CLEAR     47  40  76 NW6       29.96S
KOKOMO *+      CLEAR     41  36  81 NW7       29.97R
MARION +       CLEAR     41  38  87 NW8       29.96S
SHELBYVILLE    PTCLDY    45  40  82 NW5       29.95S
ZIONSVILLE +   CLEAR     40  38  91 NW3       29.97S

$$

INZ033-034-041-042-049-050-058-059-061100-
EAST CENTRAL INDIANA

CITY           SKY/WX    TMP DP  RH WIND       PRES   REMARKS
MUNCIE         PTCLDY    43  38  82 NW6       29.95R

$$

INZ060-061-067>069-081>083-085>088-061100-
SOUTHWEST INDIANA

CITY           SKY/WX    TMP DP  RH WIND       PRES   REMARKS
EVANSVILLE     CLEAR     48  42  80 CALM      30.01R
HUNTINGBURG *+ CLEAR     45  39  81 N3        29.99S
WASHINGTON +   CLEAR     47  45  91 NW3       29.99R

$$

INZ062-063-066-070>080-084-089>092-061100-
SOUTH CENTRAL AND SOUTHEAST INDIANA

CITY           SKY/WX    TMP DP  RH WIND       PRES   REMARKS
BEDFORD +      CLEAR     45  45 100 CALM      29.97R
BLOOMINGTON    CLEAR     44  39  82 CALM      29.98R
MADISON *+     CLEAR     45  41  87 CALM      29.97R
NORTH VERNON + PTCLDY   N/A N/A N/A CALM      29.96S
SEYMOUR +      CLEAR     45  41  87 CALM      29.96S

$$





USA.gov is the U.S. government's official web portal to all federal, state and local government web resources and services.